星链-36491(STARLINK-36491)

导读

STARLINK-36491是美国SpaceX星链互联网卫星星座的卫星之一,于2026年1月4日发射入轨,延续星链星座依托近地轨道搭建全球覆盖卫星互联网的部署计划。作为星链组网进程中新增的卫星,它将助力完善星座服务覆盖,进一步增强星座通信网络能力,服务全球卫星互联网用户需求。

基本信息
目录编号:
67310
目录名称:
STARLINK-36491
国际标识:
2026-002F
轨道中心:
EARTH
卫星名称:
星链-36491
卫星全名:
星链-36491(STARLINK-36491)
卫星状态:
在轨 (已飞行244 天)
发射日期:
2026-01-04 UTC
国别 :
美国 (US)
星等 :
--
轨道信息
数据来源 国际轨道数据
星历时间: 2026-09-05T10:14:24+0800
13小时前
查看轨道信息
半长轴: 6861.135km
偏心率: 0.000253
轨道倾角: 43.001°
近地点辐角 281.622°
升交点赤经 32.328°
平近点角 78.434°
近地点: 481.262km
远地点: 484.734km
周期: 94.266分钟
每日圈数: 15.275973
详细信息
固有亮度:
5
最大亮度:
2.5
卫星平台:
Starlink V1.0
覆盖范围:
全球
运营商:
太空探索技术公司
运营商所在国:
美国
制造商(研发单位):
太空探索技术公司
制造商所在国:
美国
使用方式:
暂无
卫星简介
Starlink 计划是 SpaceX 推出的全球卫星互联网项目,通过发射低轨道卫星,为全球尤其是偏远地区提供高速、低延迟的互联网服务。自 2019 年起,Starlink 已部署数千颗卫星,旨在缩小全球数字鸿沟,推动互联网普及。该项目还为军事、航空等行业提供通信支持,带来广泛经济效益。
2D轨道图
3D轨道图
轨道高度分析图
轨道倾角分析图
轨道综合分析图
查看轨道综合分析图
交会数据列表
事件ID 空间交会对象 最接近时刻(TCA) 交会距离 交会风险概率(CRP) 交会风险指数(CRI) 操作
CDM_260905-224105-880706-731022
2026-09-05T
22:41:49+0000
0.274 km
中距离
4.933032E-4 高风险 0.89
CDM_260905-210705-880706-731021
2026-09-05T
21:07:40+0000
0.781 km
远距离
4.778911E-5 中风险 0.69
CDM_260907-235805-915506-731021
2026-09-07T
23:58:05+0000
0.979 km
远距离
2.201464E-5 中风险 0.62
CDM_260906-001505-880706-731022
2026-09-06T
00:15:58+0000
1.114 km
极远距离
1.440762E-5 中风险 0.58
CDM_260908-043905-852806-731021
2026-09-08T
04:39:19+0000
1.164 km
极远距离
1.188251E-5 中风险 0.56
CDM_260907-191405-682506-731022
2026-09-07T
19:14:58+0000
1.339 km
极远距离
7.392123E-6 低风险 0.52
CDM_260907-174005-682506-731021
2026-09-07T
17:40:49+0000
1.427 km
极远距离
5.980152E-6 低风险 0.51
CDM_260905-193305-880706-731021
2026-09-05T
19:33:31+0000
1.747 km
极远距离
3.276339E-6 低风险 0.45
CDM_260906-235905-870106-731022
2026-09-06T
23:59:47+0000
1.721 km
极远距离
3.139809E-6 低风险 0.45
CDM_260906-015005-880706-731023
2026-09-06T
01:50:07+0000
1.977 km
极远距离
2.339758E-6 低风险 0.42